Flag for U.S.A. Weather past 2 weeks in Spartanburg, South Carolina, U.S.A.

Now
34 °F

Overcast.


Feels Like: 27 °F
Forecast: 30 / 46 °F
Wind: 8 mph from Northeast

Location: Spartanburg Memorial

Current Time: Mar 6, 2015 at 3:22:41 AM

Latest Report: Mar 6, 2015 at 3:15 AM


Visibility: 10 mi

Pressure: 30.34 "Hg

Humidity: 87%

Dew point: 30 °F

Location of SpartanburgLocation

Historic Weather in Spartanburg — Graph

°F

Spartanburg temperature yesterday

Maximum temperature yesterday: 70 °F (at 11:55 AM)
Minimum temperature yesterday: 37 °F (at 9:35 PM)
Average temperature yesterday: 58 °F

Past Weeks' High & Low Weather Summary

 TemperatureHumidityPressure
High70 °F (Mar 2, 3:15 PM)100% (Feb 22, 1:55 AM)30.70 "Hg (Feb 22, 1:55 AM)
Low12 °F (Feb 20, 7:35 AM)23% (Feb 20, 3:35 PM)29.68 "Hg (Feb 26, 3:35 AM)
Average42 °F66%30.19 "Hg
* Reported Feb 19 2:15 AM — Mar 6 2:15 AM, Spartanburg, Weather by CustomWeather, © 2015

Note: Actual official high and low records may vary slightly from our data, if they occured in-between our weather recording intervals... More about our weather records

Advertising

Spartanburg weather history for previous 24 hours

 ConditionsComfort  
Time TempWeatherWind HumidityBarometerVisibility
2:15 AM
Fri, Mar 6
36 °FMostly cloudy.10 mph81%30.34 "Hg10 mi
1:55 AM36 °FMostly cloudy.9 mph87%30.33 "Hg10 mi
1:35 AM36 °FMostly cloudy.9 mph87%30.32 "Hg10 mi
1:15 AM37 °FMostly cloudy.9 mph81%30.32 "Hg10 mi
12:35 AM37 °FMostly cloudy.10 mph87%30.30 "Hg10 mi
12:15 AM37 °FPassing clouds.8 mph93%30.30 "Hg10 mi
11:35 PM
Thu, Mar 5
37 °FPartly cloudy.8 mphN/A30.29 "Hg10 mi
11:15 PM37 °FOvercast.8 mphN/A30.29 "Hg10 mi
10:35 PM37 °FMostly cloudy.8 mphN/A30.28 "Hg10 mi
10:15 PM37 °FMostly cloudy.6 mphN/A30.28 "Hg10 mi
9:55 PM37 °FOvercast.9 mphN/A30.27 "Hg10 mi
9:35 PM37 °FMostly cloudy.15 mphN/A30.25 "Hg7 mi
9:15 PM41 °FDrizzle. Low clouds.13 mphN/A30.25 "Hg5 mi
8:55 PM41 °FDrizzle. Low clouds.13 mphN/A30.23 "Hg4 mi
8:35 PM43 °FDrizzle. Mostly cloudy.12 mphN/A30.20 "Hg5 mi
8:15 PM43 °FDrizzle. Low clouds.15 mphN/A30.20 "Hg5 mi
7:55 PM45 °FLow clouds.13 mphN/A30.18 "Hg7 mi
7:35 PM45 °FDrizzle. Mostly cloudy.10 mphN/A30.15 "Hg5 mi
7:15 PM45 °FDrizzle. Mostly cloudy.18 mphN/A30.17 "Hg7 mi
6:55 PM45 °FDrizzle. Mostly cloudy.17 mphN/A30.13 "Hg10 mi
6:35 PM46 °FRain. Low clouds.9 mphN/A30.11 "Hg10 mi
6:15 PM50 °FLight rain. Low clouds.8 mphN/A30.06 "Hg10 mi
5:55 PM50 °FLight rain. Low clouds.7 mphN/A30.05 "Hg10 mi
5:35 PM50 °FLight rain. Low clouds.10 mphN/A30.03 "Hg10 mi
5:15 PM52 °FLight rain. Low clouds.9 mphN/A30.04 "Hg10 mi
4:35 PM54 °FLight rain. Low clouds.8 mphN/A30.00 "Hg10 mi
3:35 PM55 °FScattered clouds.6 mphN/A29.94 "Hg10 mi
3:15 PM54 °FScattered clouds.No windN/A29.93 "Hg10 mi
2:35 PM52 °FBroken clouds.6 mphN/A29.94 "Hg10 mi
1:55 PM52 °FRain. Mostly cloudy.7 mph100%29.97 "Hg10 mi
1:35 PM52 °FDrizzle. Broken clouds.9 mphN/A29.97 "Hg10 mi
1:15 PM54 °FRain. Cloudy.13 mphN/A29.94 "Hg4 mi
12:35 PM68 °FRain. More clouds than sun.21 mph100%29.92 "Hg2 mi
12:15 PM70 °FPartly sunny.8 mph100%29.88 "Hg10 mi
11:55 AM70 °FLight rain. Mostly cloudy.8 mph100%29.88 "Hg10 mi
11:35 AM68 °FLight rain. Mostly cloudy.10 mph100%29.88 "Hg10 mi
11:15 AM68 °FPartly sunny.15 mph100%29.87 "Hg10 mi
10:55 AM68 °FOvercast.16 mph100%29.88 "Hg10 mi
10:35 AM68 °FPartly sunny.10 mphN/A29.87 "Hg10 mi
10:15 AM68 °FPartly sunny.10 mphN/A29.87 "Hg10 mi
9:35 AM66 °FPartly sunny.10 mphN/A29.87 "Hg7 mi
9:15 AM66 °FHeavy rain. Low clouds.8 mphN/A29.86 "Hg4 mi
8:35 AM66 °FLight rain. Low clouds.9 mphN/A29.86 "Hg7 mi
8:15 AM66 °FLight rain. Low clouds.10 mphN/A29.85 "Hg4 mi
7:55 AM66 °FDrizzle. Low clouds.9 mphN/A29.85 "Hg5 mi
7:35 AM66 °FRain. Low clouds.8 mphN/A29.84 "Hg7 mi
7:15 AM66 °FLight rain. Partly sunny.10 mphN/A29.84 "Hg10 mi
6:55 AM66 °FRain. Low clouds.8 mphN/A29.84 "Hg5 mi
6:35 AM66 °FRain. Mostly cloudy.12 mphN/A29.85 "Hg5 mi
6:15 AM66 °FLight rain. Overcast.12 mph100%29.85 "Hg5 mi
5:35 AM68 °FPassing clouds.9 mph94%29.84 "Hg10 mi
5:15 AM68 °FPassing clouds.12 mph88%29.85 "Hg10 mi
4:55 AM66 °FPassing clouds.9 mph94%29.84 "Hg10 mi
4:35 AM66 °FMostly cloudy.10 mph88%29.85 "Hg10 mi
4:15 AM68 °FPassing clouds.7 mph83%29.84 "Hg10 mi
3:55 AM68 °FPassing clouds.12 mph83%29.85 "Hg10 mi
3:35 AM68 °FPartly cloudy.8 mph88%29.85 "Hg10 mi
3:15 AM66 °FPassing clouds.10 mph94%29.86 "Hg10 mi
Weather by CustomWeather, © 2015

See weather overviewHow to use our weather pages